| time (UTC) | temp C | wind direction | speed KPH | gust KPH | rain 1hr cm | rain 24hr cm | rain mn cm | humidity % | barometer mb |
| 20260503071532 | 10 | 290 | 0.0 | 0.0 | 0.00 | 0.00 | 0.00 | 78 | 1017.8 |
| 20260503054527 | 12 | 298 | 0.0 | 0.0 | 0.00 | 0.00 | 0.00 | 72 | 1017.3 |
| 20260503053015 | 13 | 298 | 0.0 | 0.0 | 0.00 | 0.00 | 0.00 | 68 | 1017.2 |
| 20260503051515 | 13 | 291 | 0.0 | 4.8 | 0.00 | 0.00 | 0.00 | 64 | 1017.1 |
| 20260503050015 | 14 | 313 | 0.0 | 0.0 | 0.00 | 0.00 | 0.00 | 62 | 1017.0 |
| 20260503044515 | 15 | 318 | 0.0 | 0.0 | 0.00 | 0.00 | 0.00 | 55 | 1017.0 |
| 20260503043013 | 16 | 299 | 0.0 | 4.8 | 0.00 | 0.00 | 0.00 | 51 | 1016.9 |
| 20260503041513 | 16 | 64 | 0.0 | 3.2 | 0.00 | 0.00 | 0.00 | 50 | 1016.8 |
| 20260503040012 | 16 | 44 | 0.0 | 0.0 | 0.00 | 0.00 | 0.00 | 54 | 1016.7 |
| 20260503034512 | 17 | 44 | 0.0 | 0.0 | 0.00 | 0.00 | 0.00 | 49 | 1016.5 |
| 20260503033021 | 18 | 44 | 0.0 | 0.0 | 0.00 | 0.00 | 0.00 | 45 | 1016.3 |
| 20260503031511 | 18 | 48 | 0.0 | 6.4 | 0.00 | 0.00 | 0.00 | 42 | 1016.0 |
| 20260503030011 | 20 | 54 | 0.0 | 4.8 | 0.00 | 0.00 | 0.00 | 41 | 1015.9 |
| 20260503024509 | 21 | 54 | 0.0 | 3.2 | 0.00 | 0.00 | 0.00 | 37 | 1015.8 |
| 20260503023009 | 21 | 46 | 1.6 | 6.4 | 0.00 | 0.00 | 0.00 | 35 | 1015.8 |
| 20260503021508 | 22 | 49 | 3.2 | 9.7 | 0.00 | 0.00 | 0.00 | 33 | 1015.7 |
| 20260503020007 | 23 | 10 | 0.0 | 12.9 | 0.00 | 0.00 | 0.00 | 34 | 1015.7 |
| 20260503014506 | 25 | 315 | 0.0 | 3.2 | 0.00 | 0.00 | 0.00 | 26 | 1015.6 |
| 20260503013006 | 25 | 197 | 3.2 | 8.0 | 0.00 | 0.00 | 0.00 | 26 | 1015.5 |
| 20260503011504 | 25 | 257 | 0.0 | 4.8 | 0.00 | 0.00 | 0.00 | 25 | 1015.6 |
| 20260503010104 | 23 | 297 | 0.0 | 0.0 | 0.00 | 0.00 | 0.00 | 28 | 1015.7 |
| 20260503004558 | 23 | 347 | 1.6 | 11.3 | 0.00 | 0.00 | 0.00 | 30 | 1016.1 |
| 20260503003105 | 23 | 308 | 0.0 | 6.4 | 0.00 | 0.00 | 0.00 | 30 | 1016.2 |
| 20260503001610 | 23 | 35 | 0.0 | 9.7 | 0.00 | 0.00 | 0.00 | 27 | 1016.2 |
| 20260503000057 | 23 | 72 | 3.2 | 14.5 | 0.00 | 0.00 | 0.00 | 27 | 1016.2 |
| 20260502234553 | 22 | 63 | 4.8 | 9.7 | 0.00 | 0.00 | 0.00 | 30 | 1016.4 |
| 20260502233050 | 21 | 78 | 1.6 | 9.7 | 0.00 | 0.00 | 0.00 | 32 | 1016.6 |
| 20260502231549 | 22 | 82 | 4.8 | 12.9 | 0.00 | 0.00 | 0.00 | 31 | 1016.7 |
| 20260502230046 | 22 | 60 | 8.0 | 12.9 | 0.00 | 0.00 | 0.00 | 30 | 1016.8 |
| 20260502224545 | 22 | 102 | 9.7 | 14.5 | 0.00 | 0.00 | 0.00 | 31 | 1017.0 |
| 20260502223043 | 23 | 96 | 9.7 | 12.9 | 0.00 | 0.00 | 0.00 | 26 | 1017.1 |
| 20260502221544 | 23 | 84 | 6.4 | 11.3 | 0.00 | 0.00 | 0.00 | 25 | 1017.4 |
| 20260502220039 | 23 | 74 | 4.8 | 11.3 | 0.00 | 0.00 | 0.00 | 28 | 1017.6 |
| 20260502214546 | 23 | 69 | 4.8 | 9.7 | 0.00 | 0.00 | 0.00 | 25 | 1017.8 |
| 20260502213036 | 23 | 113 | 4.8 | 11.3 | 0.00 | 0.00 | 0.00 | 26 | 1018.1 |
| 20260502211532 | 23 | 77 | 6.4 | 9.7 | 0.00 | 0.00 | 0.00 | 27 | 1018.3 |
| 20260502210028 | 22 | 51 | 1.6 | 9.7 | 0.00 | 0.00 | 0.00 | 29 | 1018.5 |
| 20260502204530 | 22 | 98 | 4.8 | 9.7 | 0.00 | 0.00 | 0.00 | 27 | 1018.6 |
| 20260502203026 | 22 | 68 | 4.8 | 9.7 | 0.00 | 0.00 | 0.00 | 33 | 1018.8 |
| 20260502201526 | 22 | 69 | 6.4 | 12.9 | 0.00 | 0.00 | 0.00 | 35 | 1019.0 |
| 20260502200017 | 21 | 100 | 3.2 | 9.7 | 0.00 | 0.00 | 0.00 | 36 | 1019.3 |
| 20260502194514 | 20 | 63 | 3.2 | 9.7 | 0.00 | 0.00 | 0.00 | 37 | 1019.4 |
| 20260502193012 | 20 | 96 | 1.6 | 9.7 | 0.00 | 0.00 | 0.00 | 39 | 1019.7 |
| 20260502191509 | 20 | 100 | 1.6 | 11.3 | 0.00 | 0.00 | 0.00 | 40 | 1019.8 |
| 20260502190006 | 19 | 107 | 1.6 | 8.0 | 0.00 | 0.00 | 0.00 | 42 | 1020.0 |
| 20260502184502 | 18 | 110 | 1.6 | 12.9 | 0.00 | 0.00 | 0.00 | 45 | 1020.2 |
| 20260502183105 | 18 | 98 | 8.0 | 14.5 | 0.00 | 0.00 | 0.00 | 45 | 1020.4 |
| 20260502181609 | 17 | 73 | 4.8 | 16.1 | 0.00 | 0.00 | 0.00 | 48 | 1020.5 |
| 20260502163053 | 15 | 98 | 6.4 | 17.7 | 0.00 | 0.00 | 0.00 | 54 | 1021.2 |
| 20260502161540 | 15 | 90 | 6.4 | 12.9 | 0.00 | 0.00 | 0.00 | 55 | 1021.4 |
| 20260502151532 | 13 | 46 | 4.8 | 11.3 | 0.00 | 0.00 | 0.00 | 59 | 1021.5 |
| 20260502123005 | 6 | 246 | 0.0 | 1.6 | 0.00 | 0.00 | 0.00 | 85 | 1021.0 |
| 20260502121508 | 6 | 246 | 1.6 | 3.2 | 0.00 | 0.00 | 0.00 | 85 | 1020.9 |
| 20260502114503 | 6 | 246 | 0.0 | 3.2 | 0.00 | 0.00 | 0.00 | 84 | 1020.9 |
| 20260502113100 | 6 | 246 | 0.0 | 3.2 | 0.00 | 0.00 | 0.00 | 85 | 1020.8 |
| 20260502111557 | 6 | 246 | 0.0 | 0.0 | 0.00 | 0.00 | 0.00 | 84 | 1020.8 |
| 20260502104557 | 7 | 246 | 0.0 | 0.0 | 0.00 | 0.00 | 0.00 | 84 | 1020.9 |
| 20260502103059 | 7 | 246 | 0.0 | 1.6 | 0.00 | 0.00 | 0.00 | 83 | 1020.9 |
| 20260502101618 | 7 | 246 | 0.0 | 0.0 | 0.00 | 0.00 | 0.00 | 83 | 1020.7 |
| 20260502100112 | 7 | 246 | 0.0 | 0.0 | 0.00 | 0.00 | 0.00 | 82 | 1020.6 |